Weather Roundup
Issued by NWS

Home | Current Version | Previous Version | Text Only | Print | Product List | Glossary On
Versions: 1 2 3 4 5 6 7 8 9 10 11 12 13 14 15 16 17 18 19 20 21 22 23 24 25 26 27 28 29 30 31 32 33 34 35 36 37 38 39 40 41 42 43 44 45 46 47 48 49 50
000
NZUS93 KARX 301459
HRRWXR

CURRENT HOURLY OBSERVATIONS ACROSS
MUCH OF THE UPPER MISSISSIPPI VALLEY
NATIONAL WEATHER SERVICE LA CROSSE WI
1000 AM CDT TUE SEP 30 2014


...SOUTHEAST MINNESOTA...


CITY           SKY/WX    TMP DP  RH WIND       PRES   REMARKS
ROCHESTER      CLOUDY    44  43  96 E13       30.05F
ROCHESTER/MAYO CLOUDY    43  42  94 E10       30.05F
WINONA         CLOUDY    46  41  81 E7        30.09F
AUSTIN         CLOUDY    45  45 100 E9        30.03R
ALBERT LEA     CLOUDY    46  45  93 E15       30.01F
DODGE CENTER   CLOUDY    45  43  93 E15       30.03F
PRESTON        CLOUDY    43  42  95 E7        30.06S FOG
OWATONNA       CLOUDY    45  43  93 E10       30.04R FOG
FARIBAULT      CLOUDY    46  39  76 E9        30.04F
$$

...ELSEWHERE IN MINNESOTA...


CITY           SKY/WX    TMP DP  RH WIND       PRES   REMARKS
MINNEAPOLIS    CLOUDY    44  39  82 E14       30.05F
INTNL FALLS    CLOUDY    42  39  89 SE8       30.08F
DULUTH         CLOUDY    44  39  82 E15       30.09F
RED WING       CLOUDY    46  39  76 E6        30.07S
REDWOOD FALLS  CLOUDY    45  42  89 E13G22    29.97F
MANKATO        CLOUDY    45  39  81 SE14G20   30.02S
WORTHINGTON    CLOUDY    52  48  87 SE15      29.93S VSB 3/4
FAIRMONT       CLOUDY    50  45  81 E14       29.97F
$$

...SOUTHWEST WISCONSIN...


CITY           SKY/WX    TMP DP  RH WIND       PRES   REMARKS
LA CROSSE      CLOUDY    47  40  76 E9        30.09F
PRAIRIE DU CHI CLOUDY    46  42  84 E7        30.07F
BOSCOBEL       CLOUDY    48  42  80 NE6       30.10S
LONE ROCK      NOT AVBL
PLATTEVILLE    CLOUDY    45  42  89 NE8       30.09S
FORT MC COY    CLOUDY    42  39  89 NE7       30.10F
VIROQUA        CLOUDY    44  43  99 SE3       30.08S
WIS DELLS      CLOUDY    42  39  89 NE7       30.10R
$$

...ELSEWHERE IN WISCONSIN...


CITY           SKY/WX    TMP DP  RH WIND       PRES   REMARKS
MILWAUKEE      CLOUDY    49  41  74 N8        30.08S
MADISON        CLOUDY    44  40  85 NE5       30.10R
GREEN BAY      CLOUDY    44  41  89 N9        30.11F
EAU CLAIRE     CLOUDY    43  37  79 E8        30.10S
BLACK RVR FLS  CLOUDY    42  38  85 NE6       30.10F
MEDFORD        CLOUDY    38  37  92 NE9       30.10S WCI  32
WAUSAU         CLOUDY    42  38  85 NE5       30.10F
WIS RAPIDS     CLOUDY    43  38  82 NE8       30.12S
MARSHFIELD     CLOUDY    42  38  85 E8        30.10S
RICE LAKE      CLOUDY    41  37  87 NE6       30.12S
$$

...NORTHEAST IOWA...


CITY           SKY/WX    TMP DP  RH WIND       PRES   REMARKS
DECORAH        CLOUDY    48  45  87 E8        30.05S
MASON CITY     CLOUDY    50  48  93 SE12      30.02F
CHARLES CITY   CLOUDY    50  46  87 E8G16     30.04S
OELWEIN        CLOUDY    50  48  93 SE12      30.05S
$$

...ELSEWHERE IN IOWA...


CITY           SKY/WX    TMP DP  RH WIND       PRES   REMARKS
DES MOINES     CLOUDY    60  56  86 SE10G16   29.96F FOG
IOWA CITY      CLOUDY    55  51  86 E10       30.04S
FORT DODGE     CLOUDY    55  52  88 SE12      29.97S
$$

...NORTHERN ILLINOIS...


CITY           SKY/WX    TMP DP  RH WIND       PRES   REMARKS
CHICAGO-OHARE  CLOUDY    50  45  83 N10       30.05F
CHICAGO-MIDWAY DRIZZLE   52  49  89 N8        30.05S FOG
MOLINE         NOT AVBL
ROCKFORD       NOT AVBL
PEORIA         CLOUDY    59  51  75 NE10      30.03S
$$

NOTE: "FAIR" INDICATES FEW OR NO CLOUDS BELOW 12,000 FEET WITH NO
SIGNIFICANT WEATHER AND/OR OBSTRUCTIONS TO VISIBILITY. WIND
SPEEDS ARE IN MILES-PER-HOUR.



USA.gov is the U.S. government's official web portal to all federal, state and local government web resources and services.